Погода в Отрадном

Россия / Воронежская область     51°39′57″N   39°20′11″E
темп.,
°C
ветер,
м/с
пор.,
м/с
влажн.,
%
обл.,
%
осадки,
мм/ч
давл.,
гПа
погр.,
м
4 июля, пн
пн400:00+19зсз24680 0.0 101489
03:00+18ссз27820 0.0 1014166
06:00+19с25755 0.0 1015147
09:00+25с345174 0.0 1015719
12:00+29с35380 0.0 10142182
15:00+29ссв343972 0.0 10142262
18:00+25в355168 0.0 1014436
21:00+22вюв126468 0.0 101549
5 июля, вт
вт500:00+21ююв116467 0.0 101511
03:00+19вюв116811 0.0 101633
06:00+20юв12660 0.0 1017105
09:00+25ю21470 0.0 1017703
12:00+29ююз223419 0.0 10162541
15:00+28зюз3340100 0.0 10161640
18:00+29юз123613 0.0 10152113
21:00+24ююз245691 0.0 1016199
6 июля, ср
ср600:00+22з246651 0.0 1017183
03:00+20ююв117335 0.0 101746
06:00+21ю24675 0.0 1017200
09:00+26ююз35486 0.0 1017736
12:00+29ююз443928 0.0 10172248
15:00+29ююз553815 0.0 10161631
18:00+28ю444419 0.0 10161255
21:00+24ююв26578 0.0 1016211
7 июля, чт
чт700:00+22ююв38600 0.0 1016199
03:00+21ю4125829 0.0 1016382
06:00+21ю310490 0.0 1016280
09:00+26ююз48350 0.0 1016694
12:00+27ююз563470 0.0 1017840
15:00+29ю45341 0.0 10161286
18:00+28ю44390 0.0 10161582
21:00+23юв25560 0.0 1016151
8 июля, пт
пт800:00+21юв25560 0.0 1017117
03:00+19юв25560 0.0 1017119
06:00+19юв24500 0.0 1017141
09:00+26ююв24360 0.0 1017506
12:00+30ююв34260 0.0 10162657
15:00+31ю44252 0.0 10162945
18:00+30ююв33311 0.0 10152113
21:00+25вюв22440 0.0 101632